カタログに戻る

STARLINK-4524

運用中通信VLEO
NORAD 53396·PAYLOAD·🇺🇸 United States

打ち上げ Aug 10, 2022 から Cape Canaveral Space Force Station

Loading…

次のパス (今後24時間)

TLE

最新Source: CelesTrak SupGP

元期: Sep 15, 2026, 01:58 UTC

1 53396C 22097J   26258.08243056  .00034945  00000+0  99985-3 0  2582
2 53396  53.1592 347.7953 0001597  90.0165 290.1576 15.35379059    12

AllMySatでSTARLINK-4524をリアルタイム追跡

Download on the App Store